Location: Walnut Hills Mobile Home Park
(34.0445°N, 117.8184°W)
Time: 02:23:46
(UTC+00:00)

Cosmos 44 - Pass Details

Date: 17 December 2025
Orbit: 572 x 778 km, 65.1° (Epoch: 15 January)

Event Time Altitude Azimuth Distance (km) Brightness Sun altitude
Exits shadow 13:31:28 27° 275° (W) 1,217 4.0 -16.0°
Maximum altitude 13:32:43 32° 306° (NW) 1,114 3.8 -15.7°
Drops below altitude 10° 13:36:59 10° 9° (N) 2,110 5.7 -14.9°
Sets 13:39:37 0° 19° (NNE) 3,067 6.6 -14.4°
